Date String (YYYY-MM-DD hh:mm:ss) UTC,Instrument flags,Ambient pressure (hPa),Sample flow (lpm),Bypass flow (lpm),Sample temperature (°C),Ambient temperature (°C),ASC tube jacket temperature (°C),LED temperature (°C),Box temperature (°C),Sample RH (%),Span deviation,Mass concentration (μg/m³),Mass concentration (μg/m³),Mass concentration (μg/m³)
DateTimeUTC,F1_M11,P_M11,Q1_M11,Q2_M11,T1_M11,T2_M11,T3_M11,T4_M11,T5_M11,U1_M11,ZSPAN_M11,X0_M11,X2_M11,X1_M11
2021-10-05 20:00:00,,0830.4,5.00,0.00,29.6,28.8,00.0,38.4,31.5,13.9,0000.5,0016.05,0004.99,0003.88
2021-10-05 20:01:00,,0830.4,5.00,0.00,29.6,28.3,00.0,38.4,31.4,13.9,0000.3,0015.45,0005.00,0003.89
2021-10-05 20:02:00,,0830.3,5.00,0.00,29.5,26.4,00.0,38.4,30.8,14.1,0000.6,0014.63,0005.01,0003.90
2021-10-05 20:03:00,,0830.3,5.01,0.00,29.3,25.6,00.0,38.4,30.6,14.0,0000.8,0014.73,0005.02,0003.91
2021-10-05 20:04:00,,0830.2,5.00,0.00,29.2,26.0,00.0,38.4,30.7,14.0,0001.0,0014.56,0005.01,0003.91
2021-10-05 20:05:00,,0830.3,4.99,0.00,29.2,26.4,00.0,38.3,30.8,14.1,0001.1,0015.36,0005.01,0003.91
2021-10-05 20:06:00,,0830.3,4.99,0.00,29.2,26.9,00.0,38.3,30.9,14.1,0001.0,0016.06,0004.99,0003.90
2021-10-05 20:07:00,,0830.2,4.99,0.00,29.2,27.4,00.0,38.3,31.0,14.1,0001.5,0014.97,0004.95,0003.90
2021-10-05 20:08:00,,0830.3,5.01,0.00,29.3,27.7,00.0,38.3,31.1,14.0,0001.5,0014.86,0004.93,0003.91
2021-10-05 20:09:00,,0830.2,5.00,0.00,29.3,28.0,00.0,38.3,31.2,14.0,0002.1,0015.37,0004.90,0003.91
2021-10-05 20:10:00,,0830.2,5.00,0.00,29.4,28.3,00.0,38.3,31.3,14.0,0002.5,0016.28,0004.91,0003.91
2021-10-05 20:11:00,,0830.2,5.00,0.00,29.4,28.5,00.0,38.3,31.3,14.0,0001.5,0016.60,0005.00,0003.92
2021-10-05 20:12:00,,0830.1,5.00,0.00,29.5,28.7,00.0,38.4,31.4,14.1,0002.8,0016.90,0005.05,0003.93
2021-10-05 20:13:00,,0830.1,5.00,0.00,29.5,28.8,00.0,38.4,31.5,13.9,0002.9,0017.48,0005.04,0003.92
2021-10-05 20:14:00,,0830.1,4.99,0.00,29.6,28.1,00.0,38.4,31.3,14.0,0003.3,0017.58,0005.01,0003.92
2021-10-05 20:15:00,,0830.1,5.02,0.00,29.4,26.2,00.0,38.4,30.8,14.1,0003.4,0018.03,0005.03,0003.92
2021-10-05 20:16:00,,0830.1,4.99,0.00,29.3,25.7,00.0,38.4,30.6,14.2,0002.8,0018.19,0005.06,0003.93
2021-10-05 20:17:00,,0830.1,5.00,0.00,29.2,26.1,00.0,38.4,30.7,14.5,0001.7,0017.63,0005.11,0003.94
2021-10-05 20:18:00,,0830.1,4.99,0.00,29.2,26.6,00.0,38.3,30.8,14.5,0001.9,0018.20,0005.16,0003.94
2021-10-05 20:19:00,,0830.1,5.01,0.00,29.2,27.1,00.0,38.3,30.9,14.5,0002.1,0018.51,0005.25,0003.94
2021-10-05 20:20:00,,0830.1,4.98,0.00,29.2,27.5,00.0,38.3,31.0,14.2,0000.4,0018.89,0005.28,0003.94
2021-10-05 20:21:00,,0830.1,5.01,0.00,29.3,27.8,00.0,38.3,31.1,14.2,0000.4,0019.45,0005.29,0003.93
2021-10-05 20:22:00,,0830.0,5.01,0.00,29.3,28.1,00.0,38.3,31.2,14.3,0001.6,0019.33,0005.28,0003.94
2021-10-05 20:23:00,,0830.0,4.99,0.00,29.4,28.4,00.0,38.3,31.3,13.9,0003.1,0019.09,0005.27,0003.93
2021-10-05 20:24:00,,0830.0,4.99,0.00,29.5,28.6,00.0,38.3,31.4,13.9,0002.5,0018.70,0005.28,0003.93
2021-10-05 20:25:00,,0830.0,4.99,0.00,29.5,28.7,00.0,38.4,31.5,13.9,0002.3,0019.89,0005.33,0003.93
2021-10-05 20:26:00,,0830.0,5.00,0.00,29.6,28.9,00.0,38.4,31.5,13.9,0002.5,0020.81,0005.33,0003.94
2021-10-05 20:27:00,,0830.0,5.00,0.00,29.6,29.0,00.0,38.4,31.6,13.9,0002.6,0021.12,0005.34,0003.93
2021-10-05 20:28:00,,0830.0,5.01,0.00,29.6,28.0,00.0,38.5,31.3,14.0,0002.5,0021.24,0005.38,0003.94
2021-10-05 20:29:00,,0829.9,5.00,0.00,29.5,26.1,00.0,38.4,30.8,14.0,0002.6,0022.47,0005.37,0003.94
2021-10-05 20:30:00,,0829.9,5.01,0.00,29.3,25.8,00.0,38.4,30.7,14.3,0002.3,0022.68,0005.36,0003.96
2021-10-05 20:31:00,,0829.9,5.00,0.00,29.3,26.3,00.0,38.4,30.8,14.4,0002.3,0023.38,0005.40,0003.97
2021-10-05 20:32:00,,0829.8,5.01,0.00,29.3,26.7,00.0,38.4,30.9,14.4,0002.2,0022.23,0005.46,0004.00
2021-10-05 20:33:00,,0829.8,5.00,0.00,29.3,27.2,00.0,38.3,31.0,14.3,0001.4,0023.47,0005.48,0004.01
2021-10-05 20:34:00,,0829.8,4.99,0.00,29.3,27.6,00.0,38.3,31.1,14.6,0001.2,0022.96,0005.48,0004.01
2021-10-05 20:35:00,,0829.9,5.00,0.00,29.3,27.9,00.0,38.3,31.2,14.5,0001.0,0023.33,0005.55,0004.02
2021-10-05 20:36:00,,0829.9,5.01,0.00,29.4,28.2,00.0,38.4,31.3,14.4,0000.7,0024.22,0005.60,0004.04
2021-10-05 20:37:00,,0829.9,4.99,0.00,29.5,28.4,00.0,38.4,31.4,14.3,-000.1,0022.89,0005.58,0004.04
2021-10-05 20:38:00,,0829.8,5.01,0.00,29.5,28.6,00.0,38.4,31.5,14.3,0000.0,0022.78,0005.60,0004.06
2021-10-05 20:39:00,,0829.8,5.00,0.00,29.6,28.0,00.0,38.4,31.3,14.2,0000.0,0024.12,0005.59,0004.06
2021-10-05 20:40:00,,0829.9,5.00,0.00,29.4,26.1,00.0,38.4,30.7,14.2,0000.3,0023.46,0005.61,0004.09
2021-10-05 20:41:00,,0829.8,5.00,0.00,29.3,25.6,00.0,38.4,30.5,14.3,0000.8,0022.52,0005.55,0004.09
2021-10-05 20:42:00,,0829.8,4.99,0.00,29.2,26.0,00.0,38.4,30.6,14.4,0001.0,0022.01,0005.53,0004.09
2021-10-05 20:43:00,,0829.8,5.00,0.00,29.2,26.4,00.0,38.3,30.7,14.4,0001.1,0022.47,0005.50,0004.08
2021-10-05 20:44:00,,0829.8,5.00,0.00,29.1,26.9,00.0,38.3,30.8,14.4,0001.2,0023.35,0005.57,0004.09
2021-10-05 20:45:00,,0829.8,5.01,0.00,29.2,27.4,00.0,38.3,31.0,14.6,0000.9,0025.10,0005.63,0004.12
2021-10-05 20:46:00,,0829.8,4.99,0.00,29.2,27.7,00.0,38.3,31.1,14.6,0001.2,0025.58,0005.65,0004.13
2021-10-05 20:47:00,,0829.8,5.00,0.00,29.3,28.0,00.0,38.3,31.2,14.3,0001.7,0026.24,0005.70,0004.14
2021-10-05 20:48:00,,0829.8,5.00,0.00,29.4,28.3,00.0,38.3,31.3,14.3,0002.8,0027.13,0005.77,0004.14
2021-10-05 20:49:00,,0829.8,5.00,0.00,29.4,28.5,00.0,38.3,31.4,14.1,0002.9,0027.40,0005.82,0004.15
2021-10-05 20:50:00,,0829.8,5.00,0.00,29.5,28.7,00.0,38.3,31.4,14.1,0003.2,0025.79,0005.83,0004.16
2021-10-05 20:51:00,,0829.7,5.02,0.00,29.5,28.5,00.0,38.4,31.4,14.1,0003.1,0025.41,0005.88,0004.15
2021-10-05 20:52:00,,0829.7,5.00,0.00,29.4,26.7,00.0,38.4,30.9,14.3,0003.0,0025.43,0005.99,0004.15
2021-10-05 20:53:00,,0829.6,5.01,0.00,29.3,25.6,00.0,38.4,30.6,14.3,0003.0,0026.00,0006.09,0004.15
2021-10-05 20:54:00,,0829.8,5.00,0.00,29.2,26.0,00.0,38.3,30.6,14.2,0003.0,0025.31,0006.10,0004.14
2021-10-05 20:55:00,,0829.7,5.00,0.00,29.2,26.4,00.0,38.3,30.8,14.3,0003.2,0024.59,0006.07,0004.12
2021-10-05 20:56:00,,0829.6,4.99,0.00,29.1,26.9,00.0,38.3,30.8,14.5,0003.3,0023.93,0006.05,0004.11
2021-10-05 20:57:00,,0829.7,5.01,0.00,29.2,27.3,00.0,38.3,31.0,14.6,0003.1,0023.64,0006.02,0004.11
2021-10-05 20:58:00,,0829.6,5.01,0.00,29.2,27.7,00.0,38.3,31.1,14.3,0003.0,0023.34,0005.95,0004.11
2021-10-05 20:59:00,,0829.7,4.99,0.00,29.3,28.0,00.0,38.3,31.2,14.2,0003.0,0022.36,0005.94,0004.12
